Home > Weather > Pokhara > Past weeks

Flag for Nepal Past Weather in Pokhara, Nepal — Yesterday and Last 2 Weeks

Now
75 °F

Broken clouds.


Feels Like: 76 °F
Forecast: 67 / 77 °F
Wind: 2 mph from North

Location: Kathmandu Airport

Current Time: Jul 30, 2016 at 6:57:57 PM

Latest Report: Jul 30, 2016 at 6:35 PM


Visibility: 5 mi

Pressure: 29.83 "Hg (27.06 "Hg at 847m altitude)

Humidity: 78%

Dew Point: 68 °F

Location of PokharaLocation

Past Weather in Pokhara — Graph

°F

Pokhara Temperature Yesterday

Maximum temperature yesterday: 81 °F (at 1:05 PM)
Minimum temperature yesterday: 68 °F (at 4:35 AM)
Average temperature yesterday: 73 °F

High & Low Weather Summary for the Past Weeks

 TemperatureHumidityPressure
High82 °F (Jul 23, 1:05 PM)100% (Jul 15, 7:05 PM)30.04 "Hg (Jul 15, 7:05 PM)
Low66 °F (Jul 26, 4:35 AM)62% (Jul 23, 11:35 AM)29.71 "Hg (Jul 19, 4:05 PM)
Average73 °F89%29.88 "Hg
* Reported Jul 15 5:05 PM — Jul 30 5:35 PM, Pokhara, Weather by CustomWeather, © 2016

Note: Actual official high and low records may vary slightly from our data, if they occured in-between our weather recording intervals... More about our weather records

Advertising

Pokhara Weather History for the Previous 24 Hours

Scroll right to see more
 ConditionsComfort  
Time TempWeatherWind HumidityBarometerVisibility
5:35 PM
Sat, Jul 30
75 °FBroken clouds.5 mph78%29.80 "Hg5 mi
5:05 PM77 °FBroken clouds.5 mph74%29.80 "Hg5 mi
4:35 PM77 °FBroken clouds.No wind69%29.80 "Hg5 mi
4:05 PM79 °FBroken clouds.No wind65%29.83 "Hg5 mi
3:35 PM77 °FBroken clouds.No wind69%29.83 "Hg5 mi
3:05 PM77 °FBroken clouds.2 mph69%29.86 "Hg5 mi
2:35 PM77 °FLight rain. Broken clouds.3 mph74%29.86 "Hg5 mi
2:05 PM73 °FLight rain. Broken clouds.6 mph83%29.89 "Hg5 mi
1:35 PM73 °FLight rain. Broken clouds.8 mph78%29.89 "Hg5 mi
1:05 PM75 °FBroken clouds.6 mph78%29.92 "Hg5 mi
12:35 PM75 °FRain. Broken clouds.9 mph74%29.92 "Hg5 mi
12:05 PM75 °FRain. Broken clouds.9 mph74%29.92 "Hg4 mi
11:35 AM77 °FRain. Broken clouds.9 mph74%29.95 "Hg4 mi
11:05 AM77 °FBroken clouds.6 mph79%29.95 "Hg4 mi
10:35 AM77 °FRain. Broken clouds.7 mph79%29.95 "Hg4 mi
10:05 AM75 °FRain. Broken clouds.7 mph83%29.95 "Hg4 mi
9:35 AM73 °FBroken clouds.5 mph83%29.95 "Hg4 mi
9:05 AM73 °FBroken clouds.2 mph83%29.95 "Hg4 mi
8:35 AM73 °FBroken clouds.2 mph89%29.95 "Hg4 mi
8:05 AM72 °FBroken clouds.No wind94%29.92 "Hg4 mi
7:35 AM72 °FBroken clouds.2 mph94%29.92 "Hg4 mi
7:05 AM70 °FBroken clouds.2 mph100%29.92 "Hg4 mi
6:35 AM70 °FBroken clouds.2 mph94%29.89 "Hg4 mi
6:05 AM68 °FPartly cloudy.3 mph100%29.89 "Hg4 mi
5:35 AM68 °FPartly cloudy.No wind100%29.89 "Hg4 mi
4:35 AM68 °FPartly cloudy.No wind100%29.86 "Hg4 mi
3:35 AM70 °FFog.3 mph94%29.86 "Hg2 mi
1:35 AM70 °FPartly cloudy.No wind94%29.92 "Hg4 mi
12:35 AM72 °FPartly cloudy.No wind94%29.92 "Hg4 mi
12:05 AM72 °FPartly cloudy.No wind94%29.92 "Hg4 mi
11:35 PM
Fri, Jul 29
72 °FPartly cloudy.No wind94%29.92 "Hg4 mi
11:05 PM72 °FPartly cloudy.3 mph94%29.92 "Hg4 mi
10:35 PM72 °FPartly cloudy.2 mph94%29.92 "Hg4 mi
10:05 PM72 °FPartly cloudy.2 mph88%29.92 "Hg4 mi
9:35 PM72 °FPartly cloudy.3 mph88%29.92 "Hg4 mi
9:05 PM72 °FPartly cloudy.3 mph88%29.89 "Hg4 mi
8:35 PM72 °FPartly cloudy.3 mph88%29.89 "Hg4 mi
8:05 PM72 °FPartly cloudy.3 mph88%29.86 "Hg4 mi
7:35 PM72 °FBroken clouds.3 mph88%29.86 "Hg4 mi
7:05 PM73 °FBroken clouds.5 mph83%29.86 "Hg4 mi
6:35 PM75 °FBroken clouds.5 mph78%29.83 "Hg4 mi
6:05 PM75 °FBroken clouds.2 mph78%29.83 "Hg4 mi
Weather by CustomWeather, © 2016

See weather overviewHow to use our weather pages